Hourly Data Report for October 14, 2013

All times are specified in Local Standard Time (LST). Add 1 hour to adjust for Daylight Saving Time where and when it is observed.

MONCTON INTL A
NEW BRUNSWICK

46°06'44.000" N
64°40'43.000" W
70.70 m
8103201
71705
YQM

Download Data

Hourly Data (October 2013)
Hourly Data Report for October 14, 2013
Temp Definition
°C
Dew Point Temp Definition
°C
Rel Hum Definition
%
Wind Dir Definition
10's deg

Wind Spd Definition
km/h
Visibility Definition
km
Stn Press Definition
kPa
Hmdx Definition


Wind Chill Definition


Weather Definition


TIME
00:00 Legend Double Dagger 2.1 1.1 93 20 9 24.1 101.89     LegendNANA
01:00 Legend Double Dagger 1.5 0.9 96 20 15 19.3 101.82     LegendNANA
02:00 Legend Double Dagger 0.5 -0.2 95 20 10 24.1 101.84     Clear
03:00 Legend Double Dagger 0.2 -0.2 97 20 14 12.9 101.80     LegendNANA
04:00 Legend Double Dagger 0.2 -0.4 96 22 15 24.1 101.79     LegendNANA
05:00 Legend Double Dagger -0.2 -0.8 96 22 13 24.1 101.80   -4 Clear
06:00 Legend Double Dagger 0.1 -0.5 96 21 13 24.1 101.77     LegendNANA
07:00 Legend Double Dagger 0.5 -0.1 96 21 10 24.1 101.75     LegendNANA
08:00 Legend Double Dagger 3.0 2.3 95 23 11 24.1 101.78     Mainly Clear
09:00 Legend Double Dagger 6.7 5.0 89 21 11 24.1 101.75     LegendNANA
10:00 Legend Double Dagger 11.0 7.3 78 24 21 24.1 101.71     LegendNANA
11:00 Legend Double Dagger 13.4 7.2 66 24 30 24.1 101.66     Mostly Cloudy
12:00 Legend Double Dagger 15.1 6.7 57 24 30 24.1 101.59     LegendNANA
13:00 Legend Double Dagger 15.8 6.1 52 23 28 24.1 101.49     LegendNANA
14:00 Legend Double Dagger 16.6 6.5 51 23 20 24.1 101.44     Mainly Clear
15:00 Legend Double Dagger 16.8 7.3 53 22 23 24.1 101.40     LegendNANA
16:00 Legend Double Dagger 16.2 7.8 57 23 16 24.1 101.37     LegendNANA
17:00 Legend Double Dagger 15.1 7.9 62 22 13 24.1 101.37     Mostly Cloudy
18:00 Legend Double Dagger 13.8 8.1 68 21 12 24.1 101.39     LegendNANA
19:00 Legend Double Dagger 13.1 7.6 69 23 15 24.1 101.42     LegendNANA
20:00 Legend Double Dagger 12.6 7.7 72 23 18 24.1 101.39     Cloudy
21:00 Legend Double Dagger 12.0 7.7 75 23 17 24.1 101.40     LegendNANA
22:00 Legend Double Dagger 11.1 8.2 82 23 20 19.3 101.42     Rain Showers
23:00 Legend Double Dagger 10.2 8.8 91 23 22 16.1 101.39     Rain Showers

Notes on Data Quality.

Legend

  • E = Estimated
  • M = Missing
  • NA = Not Available
  • ‡ = Partner data that is not subject to review by the National Climate Archives
Date modified: